GFSWCAN_prec_precacc6_048.txt.gz
Total_Precipitation_Accumulation
0.02 0.02 0.01 0.01 0.01 0.00 0.01 0.01 0.02 0.08 0.06 0.07 0.11 0.15 0.03 0.02 0.02 0.01 0.02 0.10 0.28 0.19 0.05 0.03 0.01 0.00 0.01 0.02 0.12 0.13 0.14 0.14 0.13 0.09 0.03 0.01 0.00 0.00 0.00 0.00 0.00 0.00 0.00 0.00 0.00 0.00 0.00 0.00 0.00 0.00 0.00 0.00 0.00 0.00
0.02 0.01 0.01 0.01 0.00 0.00 0.00 0.01 0.01 0.06 0.05 0.06 0.08 0.13 0.03 0.02 0.01 0.03 0.08 0.07 0.54 0.54 0.17 0.04 0.03 0.00 0.00 0.04 0.23 0.05 0.07 0.07 0.05 0.03 0.02 0.00 0.00 0.00 0.00 0.00 0.00 0.00 0.00 0.00 0.00 0.00 0.00 0.00 0.00 0.00 0.00 0.00 0.00 0.00
0.01 0.01 0.01 0.01 0.00 0.00 0.00 0.01 0.01 0.06 0.06 0.07 0.06 0.05 0.02 0.02 0.04 0.09 0.13 0.19 1.07 1.04 0.43 0.10 0.06 0.04 0.05 0.04 0.12 0.10 0.02 0.02 0.02 0.07 0.04 0.02 0.00 0.00 0.00 0.00 0.00 0.00 0.00 0.00 0.00 0.00 0.00 0.00 0.00 0.00 0.00 0.00 0.00 0.00
0.02 0.01 0.01 0.01 0.01 0.01 0.01 0.02 0.02 0.04 0.05 0.03 0.03 0.03 0.03 0.13 0.13 0.16 0.29 0.34 0.89 0.98 0.73 0.22 0.09 0.06 0.05 0.03 0.03 0.05 0.03 0.01 0.01 0.02 0.03 0.04 0.01 0.00 0.00 0.00 0.00 0.00 0.00 0.00 0.00 0.00 0.00 0.00 0.00 0.00 0.00 0.00 0.00 0.00
0.02 0.01 0.01 0.01 0.01 0.02 0.04 0.06 0.04 0.04 0.04 0.02 0.04 0.06 0.23 0.25 0.18 0.41 0.58 0.74 0.71 0.72 0.71 0.40 0.23 0.08 0.06 0.05 0.04 0.03 0.06 0.05 0.02 0.01 0.00 0.00 0.00 0.00 0.00 0.00 0.00 0.00 0.00 0.00 0.00 0.00 0.00 0.00 0.00 0.00 0.00 0.00 0.00 0.00
0.03 0.02 0.03 0.03 0.03 0.04 0.06 0.11 0.10 0.06 0.03 0.04 0.06 0.23 0.35 0.31 0.43 0.65 0.59 0.40 0.80 0.65 0.50 0.67 0.36 0.25 0.14 0.17 0.09 0.13 0.12 0.11 0.06 0.01 0.00 0.00 0.00 0.00 0.00 0.00 0.00 0.00 0.00 0.00 0.00 0.00 0.00 0.00 0.00 0.00 0.00 0.00 0.00 0.00
0.13 0.09 0.07 0.04 0.04 0.08 0.14 0.15 0.12 0.04 0.03 0.06 0.14 0.31 0.43 0.39 0.38 0.44 0.42 0.48 0.69 0.59 0.44 0.39 0.55 0.31 0.37 0.17 0.27 0.08 0.13 0.11 0.12 0.03 0.00 0.00 0.00 0.00 0.00 0.00 0.00 0.00 0.00 0.00 0.00 0.00 0.00 0.00 0.00 0.00 0.00 0.00 0.00 0.00
0.23 0.17 0.11 0.09 0.09 0.10 0.11 0.11 0.08 0.03 0.04 0.09 0.23 0.43 0.40 0.36 0.40 0.36 0.24 0.35 0.69 0.67 0.41 0.20 0.27 0.22 0.21 0.10 0.14 0.14 0.04 0.06 0.06 0.04 0.01 0.00 0.00 0.00 0.00 0.00 0.00 0.00 0.00 0.00 0.00 0.00 0.00 0.00 0.00 0.00 0.00 0.00 0.00 0.00
0.16 0.13 0.11 0.11 0.10 0.10 0.10 0.08 0.05 0.04 0.08 0.20 0.42 0.55 0.63 0.62 0.53 0.42 0.21 0.23 0.49 0.52 0.30 0.10 0.10 0.07 0.03 0.01 0.01 0.06 0.04 0.03 0.01 0.02 0.01 0.00 0.00 0.00 0.00 0.00 0.00 0.00 0.00 0.00 0.00 0.00 0.00 0.00 0.00 0.00 0.00 0.00 0.00 0.00
0.09 0.09 0.09 0.10 0.12 0.12 0.09 0.08 0.09 0.11 0.21 0.43 0.64 0.73 0.73 0.51 0.29 0.26 0.25 0.14 0.07 0.04 0.01 0.00 0.00 0.00 0.00 0.00 0.00 0.02 0.02 0.02 0.00 0.00 0.00 0.00 0.00 0.00 0.00 0.00 0.00 0.00 0.00 0.00 0.00 0.00 0.00 0.00 0.00 0.00 0.00 0.00 0.00 0.00
0.05 0.04 0.05 0.04 0.05 0.07 0.09 0.10 0.13 0.19 0.34 0.51 0.68 0.64 0.35 0.19 0.19 0.19 0.11 0.03 0.00 0.00 0.00 0.00 0.00 0.00 0.00 0.03 0.03 0.02 0.03 0.02 0.00 0.00 0.00 0.00 0.00 0.00 0.00 0.00 0.00 0.00 0.00 0.00 0.00 0.00 0.00 0.00 0.00 0.00 0.00 0.00 0.00 0.00
0.08 0.06 0.05 0.04 0.02 0.02 0.04 0.05 0.08 0.14 0.24 0.23 0.25 0.12 0.11 0.06 0.02 0.01 0.00 0.00 0.00 0.00 0.00 0.00 0.01 0.00 0.00 0.01 0.03 0.02 0.03 0.02 0.01 0.00 0.01 0.00 0.00 0.00 0.01 0.00 0.00 0.00 0.00 0.00 0.00 0.00 0.00 0.00 0.00 0.00 0.00 0.00 0.00 0.00
0.04 0.05 0.07 0.05 0.03 0.03 0.04 0.06 0.08 0.05 0.04 0.04 0.01 0.01 0.03 0.01 0.00 0.00 0.00 0.00 0.00 0.00 0.00 0.00 0.00 0.00 0.01 0.00 0.01 0.02 0.01 0.00 0.00 0.00 0.00 0.00 0.00 0.00 0.00 0.00 0.00 0.00 0.00 0.00 0.00 0.00 0.00 0.00 0.00 0.00 0.00 0.00 0.00 0.00
0.03 0.03 0.02 0.03 0.06 0.08 0.05 0.02 0.00 0.00 0.00 0.00 0.00 0.00 0.00 0.00 0.00 0.00 0.00 0.00 0.00 0.00 0.00 0.00 0.00 0.00 0.00 0.00 0.00 0.01 0.00 0.00 0.00 0.00 0.00 0.00 0.00 0.00 0.00 0.00 0.00 0.00 0.00 0.00 0.00 0.00 0.00 0.00 0.00 0.00 0.00 0.00 0.00 0.00
0.00 0.00 0.00 0.00 0.00 0.00 0.00 0.00 0.00 0.00 0.00 0.00 0.00 0.00 0.00 0.01 0.01 0.01 0.00 0.00 0.01 0.00 0.00 0.00 0.00 0.00 0.00 0.00 0.00 0.00 0.00 0.00 0.00 0.00 0.00 0.00 0.00 0.00 0.00 0.00 0.00 0.00 0.00 0.00 0.00 0.00 0.00 0.00 0.00 0.00 0.00 0.00 0.00 0.00
0.00 0.00 0.00 0.00 0.00 0.00 0.00 0.00 0.00 0.02 0.05 0.03 0.02 0.01 0.01 0.00 0.01 0.01 0.01 0.01 0.00 0.00 0.00 0.00 0.00 0.00 0.00 0.00 0.00 0.00 0.00 0.00 0.00 0.00 0.00 0.00 0.00 0.00 0.00 0.00 0.00 0.00 0.00 0.00 0.00 0.00 0.00 0.00 0.00 0.00 0.00 0.00 0.00 0.00
0.00 0.00 0.00 0.00 0.00 0.00 0.00 0.00 0.02 0.11 0.14 0.09 0.10 0.07 0.05 0.02 0.02 0.03 0.02 0.01 0.00 0.00 0.00 0.00 0.00 0.00 0.00 0.00 0.00 0.01 0.01 0.01 0.00 0.00 0.00 0.01 0.01 0.00 0.01 0.01 0.00 0.01 0.01 0.00 0.00 0.00 0.00 0.00 0.00 0.00 0.00 0.00 0.00 0.00
0.00 0.00 0.00 0.00 0.00 0.00 0.00 0.00 0.02 0.04 0.06 0.10 0.11 0.17 0.14 0.18 0.14 0.10 0.09 0.05 0.03 0.04 0.04 0.06 0.05 0.04 0.04 0.03 0.03 0.03 0.03 0.03 0.05 0.06 0.06 0.05 0.02 0.02 0.01 0.01 0.02 0.01 0.00 0.00 0.00 0.00 0.00 0.00 0.00 0.00 0.00 0.00 0.00 0.00
0.00 0.00 0.00 0.00 0.00 0.00 0.00 0.00 0.00 0.02 0.10 0.13 0.15 0.15 0.11 0.13 0.15 0.16 0.13 0.11 0.09 0.07 0.07 0.09 0.09 0.09 0.11 0.14 0.14 0.12 0.10 0.08 0.09 0.11 0.13 0.10 0.05 0.02 0.02 0.03 0.04 0.02 0.00 0.00 0.00 0.00 0.00 0.00 0.00 0.00 0.00 0.00 0.00 0.00
0.00 0.00 0.00 0.00 0.00 0.00 0.00 0.00 0.00 0.01 0.07 0.09 0.13 0.11 0.08 0.12 0.09 0.05 0.04 0.03 0.03 0.02 0.05 0.08 0.14 0.17 0.20 0.21 0.17 0.12 0.09 0.07 0.04 0.06 0.11 0.13 0.09 0.05 0.05 0.03 0.01 0.00 0.00 0.00 0.00 0.00 0.00 0.00 0.00 0.00 0.00 0.00 0.00 0.00
0.00 0.00 0.00 0.00 0.00 0.00 0.00 0.00 0.01 0.01 0.03 0.05 0.06 0.02 0.06 0.04 0.02 0.01 0.00 0.00 0.00 0.05 0.13 0.18 0.18 0.22 0.24 0.21 0.15 0.07 0.05 0.03 0.03 0.01 0.02 0.05 0.05 0.02 0.02 0.02 0.01 0.00 0.00 0.00 0.00 0.00 0.00 0.00 0.00 0.00 0.00 0.00 0.00 0.00
0.00 0.00 0.00 0.00 0.00 0.00 0.00 0.00 0.00 0.00 0.00 0.02 0.01 0.01 0.02 0.02 0.02 0.00 0.00 0.00 0.05 0.11 0.11 0.13 0.12 0.11 0.11 0.12 0.13 0.10 0.08 0.02 0.01 0.01 0.01 0.01 0.02 0.03 0.04 0.04 0.01 0.02 0.03 0.03 0.01 0.01 0.00 0.00 0.00 0.00 0.00 0.00 0.00 0.00
0.00 0.00 0.00 0.00 0.00 0.00 0.00 0.00 0.00 0.00 0.00 0.00 0.00 0.00 0.01 0.01 0.03 0.00 0.01 0.02 0.09 0.14 0.10 0.07 0.05 0.04 0.05 0.07 0.04 0.06 0.08 0.06 0.06 0.06 0.05 0.05 0.06 0.06 0.06 0.06 0.06 0.04 0.04 0.03 0.01 0.00 0.00 0.00 0.00 0.00 0.00 0.00 0.00 0.00
0.00 0.00 0.00 0.00 0.00 0.00 0.00 0.00 0.00 0.00 0.00 0.00 0.00 0.00 0.00 0.01 0.00 0.00 0.01 0.04 0.09 0.05 0.03 0.07 0.05 0.03 0.01 0.01 0.03 0.05 0.08 0.04 0.04 0.05 0.05 0.03 0.03 0.05 0.04 0.04 0.02 0.02 0.02 0.01 0.00 0.00 0.00 0.00 0.00 0.00 0.00 0.00 0.00 0.00
0.00 0.00 0.00 0.00 0.00 0.00 0.00 0.00 0.00 0.00 0.00 0.00 0.00 0.00 0.00 0.00 0.00 0.01 0.02 0.05 0.02 0.02 0.02 0.03 0.01 0.01 0.01 0.02 0.03 0.03 0.04 0.03 0.02 0.02 0.05 0.03 0.03 0.03 0.03 0.03 0.02 0.01 0.00 0.00 0.00 0.00 0.00 0.00 0.00 0.00 0.00 0.00 0.00 0.00
0.00 0.00 0.00 0.00 0.00 0.00 0.00 0.01 0.00 0.01 0.01 0.00 0.01 0.00 0.01 0.01 0.00 0.02 0.04 0.05 0.02 0.02 0.02 0.03 0.03 0.00 0.01 0.01 0.01 0.02 0.03 0.03 0.01 0.02 0.04 0.03 0.03 0.02 0.02 0.02 0.01 0.00 0.00 0.00 0.00 0.00 0.00 0.00 0.00 0.00 0.00 0.00 0.01 0.01
0.01 0.01 0.00 0.00 0.01 0.00 0.00 0.01 0.01 0.00 0.01 0.01 0.01 0.01 0.04 0.01 0.02 0.04 0.03 0.02 0.02 0.02 0.02 0.01 0.01 0.01 0.01 0.02 0.01 0.01 0.00 0.00 0.00 0.01 0.01 0.00 0.00 0.00 0.00 0.00 0.00 0.00 0.00 0.00 0.00 0.00 0.00 0.00 0.00 0.00 0.00 0.00 0.00 0.00
0.01 0.01 0.01 0.01 0.00 0.00 0.00 0.01 0.01 0.01 0.01 0.01 0.03 0.00 0.01 0.01 0.04 0.05 0.05 0.06 0.04 0.01 0.00 0.00 0.00 0.00 0.00 0.01 0.01 0.01 0.01 0.01 0.00 0.00 0.00 0.00 0.00 0.00 0.00 0.00 0.00 0.00 0.00 0.00 0.00 0.00 0.00 0.00 0.00 0.00 0.00 0.00 0.00 0.00
0.00 0.00 0.00 0.00 0.00 0.00 0.01 0.02 0.01 0.01 0.01 0.01 0.01 0.01 0.02 0.03 0.06 0.06 0.06 0.03 0.03 0.02 0.01 0.02 0.03 0.02 0.01 0.00 0.00 0.00 0.00 0.00 0.00 0.00 0.00 0.01 0.01 0.00 0.00 0.00 0.01 0.00 0.00 0.00 0.00 0.00 0.00 0.01 0.01 0.00 0.00 0.00 0.00 0.01
0.00 0.00 0.00 0.00 0.00 0.01 0.02 0.01 0.01 0.01 0.00 0.00 0.00 0.01 0.01 0.03 0.05 0.03 0.02 0.01 0.02 0.01 0.01 0.01 0.01 0.01 0.02 0.01 0.00 0.00 0.00 0.00 0.00 0.00 0.00 0.00 0.00 0.00 0.00 0.01 0.00 0.00 0.00 0.00 0.00 0.00 0.00 0.00 0.00 0.00 0.00 0.00 0.01 0.01
0.00 0.00 0.00 0.00 0.01 0.02 0.02 0.03 0.02 0.00 0.00 0.00 0.00 0.00 0.01 0.02 0.02 0.01 0.01 0.03 0.01 0.02 0.01 0.01 0.00 0.00 0.00 0.00 0.00 0.00 0.01 0.00 0.00 0.00 0.00 0.00 0.00 0.00 0.00 0.00 0.00 0.00 0.00 0.00 0.01 0.00 0.00 0.00 0.00 0.00 0.00 0.00 0.00 0.00
0.00 0.00 0.00 0.00 0.01 0.00 0.01 0.04 0.05 0.05 0.02 0.01 0.01 0.01 0.02 0.02 0.01 0.01 0.00 0.01 0.00 0.00 0.00 0.00 0.01 0.01 0.00 0.00 0.00 0.00 0.00 0.00 0.00 0.00 0.00 0.00 0.00 0.00 0.00 0.00 0.00 0.00 0.00 0.00 0.00 0.00 0.00 0.00 0.00 0.00 0.01 0.00 0.00 0.00
0.00 0.00 0.00 0.00 0.01 0.01 0.00 0.01 0.01 0.01 0.01 0.00 0.01 0.01 0.01 0.01 0.01 0.02 0.02 0.01 0.00 0.00 0.00 0.00 0.01 0.02 0.01 0.00 0.00 0.00 0.00 0.00 0.00 0.00 0.00 0.00 0.00 0.00 0.00 0.00 0.00 0.00 0.00 0.00 0.00 0.00 0.00 0.00 0.01 0.01 0.01 0.00 0.00 0.00

GFSWCAN_prec_precacc6_051.txt.gz
Total_Precipitation_Accumulation
0.10 0.09 0.08 0.05 0.03 0.02 0.02 0.02 0.02 0.07 0.06 0.08 0.12 0.16 0.04 0.04 0.09 0.11 0.09 0.12 0.16 0.11 0.05 0.04 0.03 0.00 0.00 0.00 0.00 0.00 0.02 0.05 0.10 0.13 0.07 0.02 0.00 0.00 0.00 0.00 0.00 0.00 0.00 0.00 0.00 0.00 0.00 0.00 0.00 0.00 0.00 0.00 0.00 0.00
0.04 0.04 0.03 0.02 0.01 0.01 0.01 0.01 0.02 0.07 0.06 0.06 0.10 0.15 0.05 0.05 0.09 0.05 0.08 0.06 0.11 0.13 0.12 0.04 0.03 0.00 0.00 0.00 0.01 0.00 0.00 0.02 0.05 0.07 0.04 0.02 0.00 0.00 0.00 0.00 0.00 0.00 0.00 0.00 0.00 0.00 0.00 0.00 0.00 0.00 0.00 0.00 0.00 0.00
0.01 0.01 0.00 0.00 0.01 0.01 0.01 0.02 0.02 0.08 0.08 0.09 0.14 0.16 0.04 0.07 0.07 0.03 0.04 0.01 0.08 0.10 0.16 0.04 0.04 0.02 0.01 0.01 0.03 0.03 0.01 0.01 0.05 0.10 0.10 0.05 0.02 0.00 0.00 0.00 0.00 0.00 0.00 0.00 0.00 0.00 0.00 0.00 0.00 0.00 0.00 0.00 0.00 0.00
0.01 0.01 0.01 0.01 0.01 0.01 0.01 0.01 0.04 0.09 0.12 0.13 0.25 0.14 0.05 0.10 0.09 0.04 0.02 0.03 0.08 0.08 0.18 0.13 0.05 0.05 0.01 0.02 0.01 0.00 0.01 0.01 0.04 0.08 0.12 0.08 0.06 0.02 0.00 0.00 0.00 0.00 0.00 0.00 0.00 0.00 0.00 0.00 0.00 0.00 0.00 0.00 0.00 0.00
0.02 0.01 0.01 0.00 0.01 0.01 0.01 0.01 0.05 0.11 0.15 0.16 0.34 0.06 0.04 0.12 0.10 0.04 0.05 0.07 0.10 0.07 0.25 0.29 0.22 0.10 0.09 0.03 0.03 0.02 0.03 0.05 0.04 0.05 0.04 0.01 0.01 0.02 0.02 0.01 0.00 0.00 0.00 0.00 0.00 0.00 0.00 0.00 0.00 0.00 0.00 0.00 0.00 0.00
0.01 0.01 0.02 0.01 0.01 0.01 0.01 0.04 0.06 0.09 0.08 0.16 0.15 0.02 0.02 0.07 0.05 0.12 0.13 0.10 0.30 0.39 0.41 0.69 0.36 0.24 0.22 0.21 0.13 0.13 0.11 0.12 0.10 0.02 0.00 0.00 0.00 0.00 0.00 0.00 0.00 0.00 0.00 0.00 0.00 0.00 0.00 0.00 0.00 0.00 0.00 0.00 0.00 0.00
0.02 0.02 0.02 0.02 0.02 0.03 0.03 0.03 0.03 0.02 0.03 0.02 0.00 0.00 0.06 0.13 0.12 0.16 0.25 0.32 0.41 0.43 0.42 0.40 0.56 0.38 0.39 0.23 0.33 0.13 0.18 0.14 0.15 0.05 0.01 0.00 0.00 0.00 0.00 0.00 0.00 0.00 0.00 0.00 0.00 0.00 0.00 0.00 0.00 0.00 0.00 0.00 0.00 0.00
0.07 0.06 0.06 0.06 0.06 0.07 0.07 0.05 0.04 0.01 0.01 0.01 0.03 0.11 0.17 0.17 0.19 0.25 0.26 0.37 0.67 0.66 0.44 0.22 0.28 0.44 0.46 0.29 0.18 0.19 0.21 0.17 0.09 0.12 0.05 0.00 0.00 0.00 0.00 0.00 0.00 0.00 0.00 0.00 0.00 0.00 0.00 0.00 0.00 0.00 0.00 0.00 0.00 0.00
0.13 0.09 0.07 0.07 0.07 0.07 0.07 0.06 0.04 0.03 0.05 0.13 0.23 0.30 0.47 0.45 0.45 0.41 0.38 0.44 0.66 0.70 0.50 0.16 0.13 0.33 0.31 0.45 0.17 0.10 0.14 0.35 0.19 0.10 0.09 0.06 0.03 0.01 0.00 0.00 0.00 0.00 0.00 0.00 0.00 0.00 0.00 0.00 0.00 0.00 0.00 0.00 0.00 0.00
0.13 0.11 0.09 0.07 0.07 0.06 0.05 0.06 0.08 0.10 0.19 0.34 0.50 0.69 0.76 0.51 0.38 0.41 0.61 0.48 0.38 0.26 0.23 0.16 0.09 0.12 0.24 0.19 0.30 0.11 0.07 0.23 0.32 0.18 0.11 0.09 0.05 0.00 0.00 0.00 0.00 0.00 0.00 0.00 0.00 0.00 0.00 0.00 0.00 0.00 0.00 0.00 0.00 0.00
0.08 0.07 0.05 0.05 0.05 0.05 0.06 0.10 0.16 0.24 0.40 0.61 0.72 0.72 0.45 0.35 0.49 0.50 0.49 0.32 0.22 0.10 0.06 0.13 0.10 0.11 0.16 0.10 0.21 0.10 0.05 0.06 0.05 0.03 0.05 0.06 0.02 0.00 0.00 0.00 0.00 0.00 0.00 0.00 0.00 0.00 0.00 0.00 0.00 0.00 0.00 0.00 0.00 0.00
0.07 0.07 0.05 0.03 0.02 0.03 0.05 0.07 0.10 0.19 0.37 0.42 0.41 0.41 0.39 0.37 0.33 0.23 0.22 0.17 0.07 0.02 0.02 0.07 0.04 0.03 0.09 0.08 0.05 0.04 0.03 0.02 0.01 0.00 0.01 0.00 0.00 0.00 0.01 0.01 0.00 0.00 0.01 0.01 0.00 0.00 0.00 0.00 0.00 0.00 0.00 0.00 0.00 0.00
0.10 0.10 0.10 0.07 0.03 0.01 0.05 0.17 0.30 0.36 0.52 0.31 0.26 0.28 0.29 0.17 0.09 0.07 0.04 0.01 0.00 0.00 0.00 0.00 0.00 0.00 0.01 0.01 0.01 0.02 0.01 0.00 0.00 0.00 0.00 0.00 0.00 0.00 0.01 0.00 0.00 0.00 0.00 0.00 0.00 0.00 0.00 0.00 0.00 0.00 0.00 0.00 0.00 0.00
0.13 0.10 0.09 0.11 0.14 0.17 0.21 0.22 0.26 0.41 0.24 0.15 0.11 0.09 0.04 0.02 0.01 0.01 0.00 0.00 0.01 0.01 0.00 0.00 0.00 0.00 0.00 0.00 0.00 0.01 0.00 0.00 0.00 0.00 0.00 0.00 0.00 0.00 0.00 0.00 0.00 0.00 0.00 0.00 0.00 0.00 0.00 0.00 0.00 0.00 0.00 0.00 0.00 0.00
0.05 0.06 0.08 0.13 0.14 0.15 0.19 0.20 0.14 0.04 0.01 0.00 0.00 0.00 0.00 0.01 0.03 0.03 0.02 0.01 0.01 0.00 0.00 0.00 0.00 0.00 0.00 0.01 0.00 0.00 0.00 0.00 0.00 0.00 0.00 0.00 0.00 0.00 0.00 0.00 0.00 0.00 0.00 0.01 0.01 0.02 0.01 0.00 0.00 0.00 0.00 0.00 0.00 0.00
0.02 0.02 0.01 0.01 0.03 0.05 0.06 0.05 0.00 0.00 0.00 0.00 0.01 0.01 0.01 0.01 0.02 0.03 0.03 0.02 0.01 0.00 0.00 0.00 0.00 0.00 0.01 0.00 0.00 0.00 0.00 0.00 0.00 0.00 0.00 0.00 0.00 0.00 0.00 0.00 0.00 0.01 0.01 0.01 0.01 0.00 0.00 0.00 0.00 0.00 0.00 0.00 0.00 0.00
0.01 0.03 0.01 0.00 0.00 0.00 0.00 0.01 0.01 0.03 0.02 0.02 0.05 0.05 0.04 0.03 0.04 0.05 0.05 0.03 0.00 0.00 0.00 0.00 0.00 0.00 0.01 0.00 0.01 0.01 0.01 0.01 0.00 0.00 0.00 0.00 0.00 0.00 0.02 0.03 0.03 0.02 0.01 0.00 0.00 0.00 0.00 0.00 0.00 0.00 0.00 0.00 0.00 0.00
0.00 0.00 0.00 0.00 0.00 0.00 0.00 0.00 0.03 0.04 0.06 0.10 0.10 0.16 0.13 0.16 0.12 0.09 0.09 0.06 0.03 0.03 0.03 0.06 0.05 0.05 0.04 0.03 0.04 0.05 0.05 0.04 0.04 0.04 0.03 0.04 0.04 0.06 0.04 0.04 0.05 0.02 0.01 0.02 0.00 0.00 0.00 0.00 0.00 0.00 0.00 0.00 0.00 0.00
0.00 0.00 0.00 0.00 0.00 0.00 0.00 0.00 0.00 0.03 0.12 0.15 0.16 0.14 0.11 0.13 0.14 0.15 0.12 0.10 0.09 0.05 0.06 0.09 0.09 0.10 0.12 0.16 0.19 0.16 0.15 0.13 0.13 0.16 0.17 0.16 0.09 0.07 0.08 0.08 0.07 0.05 0.03 0.02 0.01 0.00 0.00 0.00 0.00 0.00 0.00 0.00 0.00 0.00
0.00 0.00 0.00 0.00 0.00 0.00 0.00 0.00 0.00 0.01 0.07 0.12 0.14 0.09 0.07 0.13 0.09 0.04 0.03 0.02 0.02 0.01 0.03 0.08 0.15 0.19 0.23 0.24 0.22 0.19 0.17 0.16 0.10 0.09 0.14 0.16 0.15 0.10 0.09 0.06 0.05 0.03 0.02 0.01 0.01 0.00 0.00 0.00 0.00 0.00 0.00 0.00 0.00 0.00
0.00 0.00 0.00 0.00 0.00 0.00 0.00 0.00 0.01 0.01 0.04 0.06 0.08 0.03 0.09 0.05 0.01 0.00 0.00 0.00 0.01 0.06 0.14 0.19 0.20 0.24 0.29 0.23 0.18 0.14 0.13 0.08 0.07 0.03 0.04 0.08 0.11 0.06 0.06 0.06 0.04 0.02 0.02 0.02 0.01 0.02 0.01 0.01 0.00 0.00 0.00 0.00 0.00 0.00
0.00 0.00 0.00 0.00 0.00 0.00 0.00 0.00 0.01 0.01 0.01 0.03 0.02 0.01 0.03 0.03 0.01 0.00 0.00 0.01 0.07 0.15 0.17 0.17 0.17 0.18 0.16 0.15 0.16 0.12 0.12 0.06 0.05 0.04 0.03 0.02 0.04 0.05 0.06 0.07 0.04 0.05 0.06 0.06 0.05 0.04 0.03 0.01 0.00 0.00 0.00 0.00 0.00 0.00
0.00 0.00 0.00 0.00 0.00 0.00 0.00 0.00 0.00 0.00 0.00 0.00 0.00 0.00 0.01 0.02 0.03 0.00 0.00 0.03 0.09 0.16 0.16 0.11 0.11 0.10 0.11 0.13 0.08 0.09 0.12 0.08 0.06 0.06 0.06 0.05 0.06 0.07 0.06 0.07 0.08 0.07 0.06 0.07 0.05 0.04 0.03 0.01 0.00 0.00 0.00 0.00 0.00 0.00
0.00 0.00 0.00 0.00 0.00 0.00 0.00 0.00 0.00 0.00 0.00 0.00 0.00 0.01 0.02 0.03 0.00 0.00 0.01 0.03 0.09 0.06 0.03 0.06 0.04 0.03 0.03 0.02 0.03 0.06 0.09 0.05 0.04 0.05 0.06 0.03 0.03 0.05 0.04 0.05 0.05 0.05 0.05 0.04 0.02 0.01 0.00 0.00 0.00 0.00 0.00 0.00 0.00 0.00
0.00 0.00 0.00 0.00 0.00 0.00 0.00 0.00 0.00 0.00 0.00 0.00 0.00 0.01 0.01 0.00 0.00 0.01 0.01 0.03 0.03 0.03 0.03 0.02 0.01 0.00 0.01 0.02 0.02 0.03 0.03 0.02 0.01 0.01 0.04 0.03 0.03 0.04 0.03 0.03 0.03 0.02 0.01 0.00 0.00 0.00 0.00 0.00 0.00 0.00 0.00 0.00 0.00 0.00
0.00 0.00 0.00 0.01 0.00 0.00 0.00 0.00 0.00 0.01 0.00 0.01 0.01 0.02 0.01 0.00 0.00 0.01 0.03 0.03 0.02 0.02 0.02 0.02 0.01 0.00 0.00 0.01 0.01 0.01 0.02 0.02 0.00 0.00 0.02 0.02 0.01 0.01 0.02 0.02 0.01 0.00 0.00 0.00 0.00 0.00 0.00 0.00 0.00 0.00 0.00 0.00 0.00 0.00
0.00 0.00 0.00 0.01 0.01 0.00 0.00 0.00 0.00 0.00 0.00 0.01 0.01 0.01 0.03 0.00 0.01 0.03 0.03 0.02 0.02 0.03 0.02 0.01 0.00 0.01 0.01 0.01 0.01 0.01 0.00 0.00 0.00 0.00 0.00 0.00 0.00 0.00 0.00 0.00 0.00 0.00 0.00 0.00 0.00 0.00 0.00 0.00 0.00 0.00 0.00 0.00 0.00 0.00
0.01 0.00 0.00 0.00 0.00 0.00 0.00 0.00 0.00 0.01 0.01 0.01 0.02 0.00 0.00 0.01 0.03 0.05 0.06 0.07 0.03 0.01 0.00 0.00 0.00 0.00 0.00 0.00 0.01 0.01 0.01 0.00 0.00 0.00 0.00 0.00 0.00 0.00 0.00 0.00 0.00 0.00 0.00 0.00 0.00 0.00 0.00 0.01 0.01 0.00 0.00 0.00 0.00 0.00
0.00 0.00 0.00 0.00 0.00 0.00 0.01 0.01 0.01 0.01 0.01 0.01 0.00 0.01 0.01 0.02 0.05 0.05 0.06 0.04 0.03 0.01 0.01 0.01 0.02 0.00 0.00 0.00 0.00 0.00 0.00 0.00 0.00 0.00 0.00 0.00 0.00 0.00 0.00 0.01 0.01 0.00 0.00 0.00 0.00 0.00 0.00 0.01 0.01 0.00 0.00 0.00 0.00 0.01
0.00 0.00 0.00 0.00 0.00 0.01 0.02 0.00 0.00 0.01 0.00 0.00 0.00 0.01 0.01 0.03 0.06 0.03 0.02 0.01 0.01 0.01 0.01 0.01 0.01 0.00 0.00 0.00 0.00 0.00 0.00 0.00 0.00 0.00 0.00 0.00 0.00 0.00 0.00 0.00 0.00 0.00 0.00 0.00 0.00 0.00 0.00 0.00 0.00 0.00 0.00 0.00 0.00 0.00
0.00 0.00 0.00 0.00 0.01 0.02 0.02 0.01 0.00 0.00 0.00 0.00 0.00 0.00 0.01 0.02 0.02 0.01 0.01 0.01 0.01 0.00 0.00 0.00 0.00 0.00 0.00 0.00 0.00 0.00 0.00 0.01 0.00 0.00 0.00 0.00 0.00 0.00 0.00 0.00 0.00 0.00 0.00 0.00 0.00 0.00 0.00 0.00 0.00 0.00 0.00 0.01 0.00 0.00
0.00 0.00 0.00 0.00 0.01 0.02 0.03 0.04 0.03 0.02 0.01 0.00 0.01 0.00 0.01 0.00 0.00 0.01 0.01 0.00 0.00 0.00 0.00 0.00 0.00 0.00 0.00 0.00 0.00 0.00 0.00 0.00 0.00 0.00 0.00 0.00 0.00 0.00 0.00 0.00 0.00 0.00 0.00 0.00 0.00 0.00 0.00 0.00 0.00 0.00 0.00 0.00 0.00 0.00
0.00 0.00 0.00 0.00 0.01 0.02 0.01 0.02 0.02 0.01 0.00 0.00 0.01 0.01 0.01 0.00 0.00 0.01 0.01 0.00 0.00 0.00 0.00 0.00 0.00 0.01 0.01 0.00 0.00 0.00 0.00 0.00 0.00 0.00 0.00 0.00 0.00 0.00 0.00 0.00 0.00 0.00 0.00 0.00 0.00 0.00 0.00 0.00 0.00 0.00 0.01 0.00 0.00 0.00

GFSWCAN_prec_precacc6_054.txt.gz
Total_Precipitation_Accumulation
0.17 0.21 0.20 0.18 0.16 0.14 0.11 0.09 0.06 0.03 0.02 0.02 0.01 0.01 0.01 0.02 0.08 0.13 0.26 0.14 0.08 0.09 0.03 0.04 0.05 0.01 0.00 0.00 0.00 0.00 0.00 0.00 0.02 0.05 0.04 0.02 0.01 0.00 0.00 0.00 0.00 0.00 0.00 0.00 0.00 0.00 0.00 0.00 0.00 0.00 0.00 0.00 0.00 0.00
0.10 0.12 0.13 0.11 0.10 0.09 0.06 0.05 0.04 0.02 0.02 0.02 0.02 0.02 0.03 0.04 0.10 0.14 0.18 0.17 0.07 0.06 0.07 0.02 0.02 0.01 0.00 0.00 0.00 0.00 0.00 0.00 0.01 0.03 0.02 0.03 0.00 0.00 0.00 0.00 0.00 0.00 0.00 0.00 0.00 0.00 0.00 0.00 0.00 0.00 0.00 0.00 0.00 0.00
0.05 0.04 0.03 0.03 0.03 0.04 0.05 0.05 0.03 0.04 0.03 0.03 0.08 0.13 0.04 0.08 0.14 0.15 0.15 0.13 0.08 0.06 0.02 0.06 0.03 0.03 0.01 0.00 0.00 0.00 0.00 0.00 0.03 0.03 0.06 0.04 0.02 0.01 0.00 0.00 0.00 0.00 0.00 0.00 0.00 0.00 0.00 0.00 0.00 0.00 0.00 0.00 0.00 0.00
0.01 0.02 0.02 0.02 0.03 0.03 0.04 0.03 0.04 0.08 0.09 0.11 0.24 0.15 0.06 0.13 0.16 0.09 0.14 0.17 0.05 0.07 0.09 0.06 0.04 0.03 0.01 0.01 0.00 0.00 0.00 0.01 0.03 0.08 0.11 0.06 0.06 0.03 0.01 0.00 0.00 0.00 0.00 0.00 0.00 0.00 0.00 0.00 0.00 0.00 0.00 0.00 0.00 0.00
0.01 0.01 0.01 0.01 0.01 0.02 0.01 0.02 0.06 0.10 0.14 0.16 0.36 0.08 0.07 0.16 0.16 0.07 0.12 0.22 0.05 0.03 0.08 0.07 0.03 0.06 0.08 0.05 0.03 0.01 0.00 0.01 0.03 0.05 0.06 0.02 0.02 0.03 0.02 0.01 0.00 0.00 0.00 0.00 0.00 0.00 0.00 0.00 0.00 0.00 0.00 0.00 0.00 0.00
0.01 0.01 0.02 0.02 0.02 0.02 0.02 0.05 0.08 0.10 0.10 0.24 0.23 0.07 0.10 0.14 0.13 0.10 0.19 0.18 0.03 0.03 0.05 0.06 0.02 0.01 0.09 0.15 0.11 0.08 0.01 0.01 0.04 0.02 0.01 0.00 0.00 0.02 0.01 0.00 0.00 0.00 0.00 0.00 0.00 0.00 0.00 0.00 0.00 0.00 0.00 0.00 0.00 0.00
0.01 0.01 0.01 0.02 0.04 0.05 0.04 0.04 0.06 0.09 0.18 0.25 0.07 0.09 0.08 0.09 0.09 0.11 0.08 0.05 0.01 0.03 0.04 0.04 0.03 0.08 0.06 0.16 0.14 0.10 0.09 0.06 0.05 0.02 0.01 0.00 0.00 0.01 0.00 0.00 0.00 0.00 0.00 0.00 0.00 0.00 0.00 0.00 0.00 0.00 0.00 0.00 0.00 0.00
0.01 0.00 0.00 0.02 0.02 0.01 0.01 0.04 0.08 0.16 0.20 0.08 0.08 0.09 0.07 0.06 0.03 0.02 0.05 0.03 0.01 0.08 0.08 0.05 0.03 0.23 0.26 0.25 0.13 0.11 0.22 0.17 0.09 0.10 0.04 0.01 0.00 0.00 0.00 0.00 0.00 0.00 0.00 0.00 0.00 0.00 0.00 0.00 0.00 0.00 0.00 0.00 0.00 0.00
0.03 0.01 0.00 0.00 0.00 0.00 0.01 0.02 0.03 0.03 0.03 0.05 0.09 0.04 0.13 0.08 0.06 0.02 0.18 0.21 0.17 0.20 0.21 0.07 0.04 0.26 0.28 0.47 0.23 0.08 0.14 0.38 0.21 0.10 0.10 0.06 0.04 0.01 0.00 0.00 0.00 0.00 0.00 0.00 0.00 0.00 0.00 0.00 0.00 0.00 0.00 0.00 0.00 0.00
0.06 0.04 0.02 0.01 0.00 0.00 0.00 0.00 0.00 0.00 0.00 0.02 0.07 0.14 0.18 0.07 0.14 0.29 0.53 0.39 0.33 0.23 0.22 0.16 0.09 0.12 0.24 0.20 0.42 0.25 0.11 0.25 0.37 0.23 0.13 0.14 0.08 0.01 0.00 0.00 0.00 0.00 0.00 0.00 0.00 0.00 0.00 0.00 0.00 0.00 0.00 0.00 0.00 0.00
0.06 0.04 0.02 0.02 0.02 0.01 0.01 0.01 0.03 0.06 0.08 0.15 0.23 0.33 0.21 0.22 0.45 0.50 0.51 0.33 0.23 0.10 0.06 0.13 0.10 0.16 0.21 0.12 0.23 0.29 0.33 0.24 0.21 0.27 0.24 0.22 0.11 0.02 0.00 0.00 0.01 0.01 0.00 0.00 0.00 0.00 0.00 0.00 0.00 0.00 0.00 0.00 0.00 0.00
0.06 0.05 0.03 0.02 0.01 0.01 0.02 0.02 0.03 0.07 0.17 0.39 0.52 0.42 0.38 0.40 0.34 0.25 0.27 0.21 0.10 0.03 0.03 0.11 0.07 0.07 0.26 0.25 0.20 0.27 0.23 0.24 0.16 0.07 0.09 0.07 0.04 0.03 0.05 0.05 0.04 0.03 0.02 0.01 0.01 0.01 0.00 0.01 0.01 0.01 0.01 0.01 0.00 0.00
0.09 0.08 0.07 0.04 0.01 0.01 0.03 0.14 0.26 0.40 0.80 0.68 0.37 0.34 0.33 0.22 0.11 0.08 0.07 0.06 0.04 0.02 0.02 0.04 0.07 0.04 0.06 0.24 0.28 0.12 0.12 0.10 0.09 0.05 0.02 0.00 0.00 0.01 0.02 0.02 0.04 0.03 0.02 0.01 0.01 0.01 0.01 0.03 0.04 0.02 0.02 0.01 0.00 0.00
0.12 0.08 0.09 0.12 0.14 0.15 0.20 0.27 0.37 0.78 0.71 0.33 0.26 0.26 0.16 0.06 0.06 0.06 0.05 0.02 0.03 0.02 0.01 0.01 0.02 0.01 0.00 0.02 0.07 0.04 0.01 0.01 0.01 0.00 0.00 0.00 0.00 0.00 0.00 0.00 0.00 0.00 0.00 0.01 0.02 0.03 0.04 0.03 0.01 0.00 0.00 0.00 0.00 0.00
0.13 0.13 0.16 0.23 0.23 0.25 0.31 0.43 0.56 0.51 0.33 0.23 0.14 0.08 0.05 0.07 0.08 0.07 0.05 0.04 0.04 0.02 0.01 0.02 0.02 0.01 0.00 0.01 0.00 0.00 0.00 0.00 0.00 0.00 0.00 0.00 0.00 0.00 0.00 0.00 0.00 0.01 0.02 0.03 0.03 0.03 0.02 0.00 0.00 0.00 0.00 0.00 0.00 0.00
0.17 0.13 0.13 0.18 0.17 0.23 0.31 0.35 0.23 0.11 0.03 0.01 0.04 0.05 0.05 0.03 0.04 0.04 0.04 0.03 0.03 0.02 0.01 0.00 0.04 0.06 0.09 0.03 0.01 0.00 0.00 0.00 0.00 0.00 0.00 0.00 0.00 0.00 0.00 0.01 0.01 0.03 0.03 0.02 0.03 0.02 0.01 0.00 0.00 0.00 0.00 0.00 0.00 0.00
0.12 0.10 0.05 0.07 0.12 0.13 0.12 0.11 0.03 0.00 0.00 0.01 0.05 0.08 0.06 0.05 0.06 0.07 0.06 0.05 0.02 0.00 0.01 0.01 0.01 0.03 0.05 0.04 0.03 0.04 0.04 0.03 0.02 0.01 0.00 0.00 0.00 0.01 0.03 0.05 0.08 0.08 0.06 0.03 0.01 0.01 0.01 0.01 0.00 0.00 0.00 0.00 0.00 0.00
0.06 0.04 0.03 0.08 0.09 0.10 0.12 0.14 0.04 0.00 0.03 0.09 0.09 0.14 0.10 0.13 0.10 0.07 0.07 0.06 0.02 0.02 0.03 0.04 0.04 0.03 0.03 0.03 0.06 0.11 0.13 0.12 0.09 0.07 0.07 0.08 0.10 0.13 0.13 0.13 0.13 0.07 0.04 0.04 0.03 0.03 0.02 0.01 0.00 0.00 0.00 0.00 0.00 0.00
0.00 0.00 0.00 0.01 0.01 0.02 0.02 0.00 0.00 0.03 0.09 0.11 0.11 0.09 0.06 0.09 0.12 0.13 0.11 0.09 0.07 0.03 0.03 0.07 0.06 0.07 0.10 0.13 0.16 0.17 0.17 0.17 0.18 0.22 0.25 0.25 0.20 0.16 0.16 0.13 0.10 0.08 0.07 0.07 0.04 0.03 0.01 0.00 0.00 0.00 0.00 0.00 0.00 0.00
0.00 0.00 0.00 0.00 0.00 0.00 0.00 0.00 0.00 0.01 0.07 0.12 0.11 0.05 0.04 0.09 0.06 0.02 0.02 0.02 0.02 0.01 0.04 0.08 0.14 0.17 0.20 0.23 0.26 0.25 0.24 0.23 0.16 0.11 0.15 0.18 0.19 0.13 0.12 0.08 0.08 0.07 0.06 0.06 0.05 0.04 0.02 0.01 0.00 0.00 0.00 0.00 0.00 0.00
0.00 0.00 0.00 0.00 0.00 0.00 0.00 0.00 0.01 0.02 0.04 0.07 0.09 0.03 0.08 0.03 0.00 0.00 0.00 0.00 0.00 0.06 0.13 0.18 0.20 0.22 0.27 0.26 0.22 0.18 0.19 0.15 0.12 0.06 0.07 0.10 0.14 0.10 0.10 0.10 0.07 0.06 0.05 0.05 0.05 0.05 0.04 0.03 0.02 0.01 0.00 0.00 0.00 0.00
0.00 0.00 0.00 0.00 0.00 0.00 0.01 0.00 0.01 0.02 0.02 0.05 0.04 0.02 0.04 0.02 0.00 0.00 0.00 0.01 0.06 0.14 0.19 0.19 0.19 0.20 0.18 0.16 0.18 0.15 0.18 0.11 0.09 0.07 0.07 0.05 0.06 0.07 0.08 0.10 0.07 0.07 0.07 0.07 0.07 0.06 0.06 0.04 0.03 0.01 0.01 0.00 0.00 0.00
0.00 0.00 0.00 0.00 0.00 0.00 0.00 0.00 0.00 0.00 0.00 0.01 0.00 0.00 0.01 0.01 0.01 0.00 0.00 0.03 0.08 0.15 0.17 0.14 0.15 0.14 0.14 0.16 0.10 0.09 0.12 0.08 0.07 0.07 0.07 0.06 0.06 0.06 0.05 0.06 0.06 0.05 0.05 0.07 0.06 0.05 0.05 0.03 0.02 0.01 0.00 0.00 0.00 0.00
0.00 0.00 0.00 0.00 0.00 0.00 0.00 0.00 0.00 0.00 0.00 0.00 0.00 0.01 0.04 0.02 0.00 0.00 0.01 0.03 0.07 0.07 0.05 0.07 0.07 0.06 0.06 0.04 0.04 0.06 0.08 0.05 0.04 0.04 0.05 0.02 0.02 0.04 0.03 0.03 0.03 0.04 0.04 0.04 0.02 0.01 0.01 0.00 0.00 0.00 0.00 0.00 0.00 0.00
0.00 0.00 0.00 0.00 0.00 0.00 0.00 0.00 0.00 0.00 0.00 0.00 0.00 0.02 0.02 0.00 0.00 0.00 0.01 0.03 0.03 0.03 0.04 0.03 0.02 0.02 0.02 0.03 0.03 0.04 0.03 0.01 0.01 0.01 0.03 0.02 0.01 0.01 0.01 0.01 0.01 0.01 0.00 0.00 0.00 0.00 0.00 0.00 0.00 0.00 0.00 0.00 0.00 0.00
0.00 0.00 0.00 0.01 0.00 0.00 0.00 0.00 0.00 0.00 0.00 0.01 0.01 0.03 0.00 0.00 0.00 0.01 0.02 0.03 0.02 0.03 0.03 0.02 0.01 0.00 0.00 0.01 0.01 0.01 0.01 0.00 0.00 0.00 0.01 0.01 0.01 0.01 0.01 0.00 0.00 0.00 0.00 0.00 0.00 0.00 0.00 0.00 0.00 0.00 0.00 0.00 0.00 0.00
0.00 0.00 0.00 0.01 0.00 0.00 0.00 0.00 0.00 0.00 0.00 0.01 0.01 0.01 0.00 0.00 0.01 0.03 0.03 0.03 0.02 0.03 0.02 0.01 0.00 0.00 0.01 0.01 0.01 0.00 0.00 0.00 0.00 0.00 0.00 0.00 0.00 0.00 0.00 0.00 0.00 0.01 0.00 0.00 0.00 0.00 0.00 0.00 0.00 0.00 0.00 0.00 0.00 0.00
0.01 0.00 0.00 0.00 0.00 0.00 0.00 0.00 0.00 0.01 0.01 0.02 0.01 0.00 0.00 0.00 0.02 0.04 0.05 0.06 0.03 0.01 0.00 0.00 0.00 0.00 0.00 0.00 0.01 0.01 0.00 0.00 0.00 0.00 0.00 0.00 0.00 0.00 0.00 0.00 0.01 0.00 0.00 0.00 0.00 0.00 0.00 0.01 0.01 0.01 0.00 0.00 0.00 0.00
0.00 0.00 0.00 0.00 0.00 0.00 0.01 0.01 0.01 0.01 0.01 0.01 0.00 0.01 0.01 0.02 0.04 0.04 0.05 0.04 0.02 0.00 0.00 0.00 0.01 0.00 0.00 0.00 0.00 0.00 0.00 0.00 0.00 0.00 0.00 0.00 0.00 0.00 0.00 0.00 0.00 0.00 0.00 0.00 0.00 0.00 0.00 0.01 0.01 0.00 0.00 0.00 0.00 0.00
0.00 0.00 0.00 0.00 0.00 0.01 0.01 0.00 0.00 0.00 0.00 0.00 0.00 0.01 0.01 0.03 0.05 0.04 0.02 0.01 0.00 0.00 0.00 0.00 0.00 0.00 0.00 0.00 0.00 0.00 0.00 0.00 0.00 0.00 0.00 0.00 0.00 0.00 0.00 0.00 0.00 0.00 0.00 0.00 0.00 0.00 0.00 0.00 0.00 0.00 0.00 0.00 0.00 0.00
0.00 0.00 0.00 0.00 0.01 0.02 0.01 0.00 0.00 0.00 0.00 0.00 0.00 0.00 0.01 0.02 0.02 0.01 0.01 0.01 0.00 0.00 0.00 0.00 0.00 0.00 0.00 0.00 0.00 0.00 0.00 0.00 0.00 0.00 0.00 0.00 0.00 0.00 0.00 0.00 0.00 0.00 0.00 0.00 0.00 0.00 0.00 0.00 0.00 0.00 0.00 0.00 0.00 0.01
0.00 0.00 0.00 0.00 0.02 0.02 0.02 0.02 0.01 0.00 0.00 0.00 0.00 0.00 0.00 0.00 0.00 0.01 0.01 0.00 0.00 0.00 0.00 0.00 0.00 0.00 0.00 0.00 0.00 0.00 0.00 0.00 0.00 0.00 0.00 0.00 0.00 0.00 0.00 0.00 0.00 0.00 0.00 0.00 0.00 0.00 0.00 0.00 0.00 0.00 0.00 0.00 0.01 0.00
0.00 0.00 0.00 0.00 0.01 0.02 0.02 0.04 0.02 0.01 0.00 0.00 0.01 0.01 0.00 0.00 0.00 0.01 0.01 0.00 0.00 0.00 0.00 0.00 0.00 0.00 0.00 0.00 0.00 0.00 0.00 0.00 0.00 0.00 0.00 0.00 0.00 0.00 0.00 0.00 0.00 0.00 0.00 0.00 0.00 0.00 0.00 0.00 0.00 0.00 0.00 0.00 0.00 0.00

GFSWCAN_prec_precacc6_057.txt.gz
Total_Precipitation_Accumulation
0.10 0.14 0.15 0.15 0.16 0.15 0.13 0.20 0.21 0.21 0.12 0.09 0.03 0.01 0.03 0.02 0.06 0.05 0.21 0.14 0.06 0.06 0.04 0.08 0.06 0.01 0.00 0.00 0.00 0.00 0.00 0.00 0.00 0.00 0.00 0.01 0.00 0.00 0.00 0.00 0.00 0.00 0.00 0.00 0.00 0.00 0.00 0.00 0.00 0.00 0.00 0.00 0.00 0.00
0.16 0.14 0.15 0.16 0.16 0.13 0.14 0.18 0.16 0.16 0.09 0.06 0.02 0.01 0.04 0.03 0.06 0.11 0.15 0.27 0.09 0.04 0.05 0.04 0.05 0.03 0.00 0.00 0.00 0.00 0.00 0.00 0.00 0.00 0.00 0.01 0.00 0.00 0.00 0.00 0.00 0.00 0.00 0.00 0.00 0.00 0.00 0.00 0.00 0.00 0.00 0.00 0.00 0.00
0.13 0.15 0.17 0.19 0.16 0.13 0.13 0.13 0.11 0.10 0.05 0.04 0.04 0.04 0.05 0.05 0.10 0.12 0.12 0.20 0.20 0.06 0.01 0.07 0.05 0.06 0.02 0.00 0.00 0.00 0.00 0.00 0.00 0.00 0.01 0.01 0.01 0.00 0.00 0.00 0.00 0.00 0.01 0.00 0.00 0.00 0.00 0.00 0.00 0.00 0.00 0.00 0.00 0.00
0.04 0.06 0.08 0.08 0.07 0.06 0.07 0.06 0.05 0.05 0.05 0.08 0.07 0.06 0.06 0.07 0.09 0.07 0.14 0.19 0.21 0.10 0.01 0.02 0.05 0.02 0.01 0.02 0.00 0.00 0.00 0.00 0.01 0.02 0.03 0.02 0.01 0.01 0.00 0.00 0.00 0.00 0.00 0.00 0.00 0.00 0.00 0.00 0.00 0.00 0.00 0.00 0.00 0.00
0.01 0.01 0.02 0.02 0.02 0.03 0.03 0.03 0.02 0.03 0.05 0.06 0.07 0.06 0.04 0.06 0.08 0.06 0.11 0.22 0.09 0.13 0.04 0.00 0.03 0.05 0.04 0.04 0.03 0.02 0.00 0.00 0.01 0.01 0.02 0.02 0.01 0.00 0.00 0.00 0.00 0.00 0.00 0.00 0.00 0.01 0.00 0.00 0.00 0.00 0.00 0.00 0.00 0.00
0.00 0.01 0.01 0.02 0.02 0.02 0.02 0.01 0.02 0.03 0.03 0.10 0.11 0.07 0.09 0.08 0.11 0.10 0.23 0.28 0.12 0.10 0.07 0.01 0.01 0.03 0.04 0.11 0.09 0.07 0.02 0.00 0.00 0.00 0.01 0.00 0.00 0.01 0.01 0.00 0.00 0.00 0.00 0.00 0.00 0.00 0.00 0.00 0.00 0.00 0.00 0.00 0.00 0.00
0.00 0.01 0.01 0.02 0.03 0.04 0.03 0.03 0.05 0.08 0.16 0.27 0.08 0.15 0.09 0.09 0.09 0.17 0.15 0.12 0.08 0.12 0.09 0.02 0.01 0.02 0.10 0.14 0.10 0.06 0.04 0.02 0.01 0.00 0.00 0.00 0.00 0.01 0.00 0.00 0.00 0.00 0.00 0.00 0.00 0.00 0.00 0.00 0.00 0.00 0.00 0.00 0.00 0.00
0.00 0.00 0.00 0.02 0.02 0.01 0.01 0.04 0.08 0.17 0.21 0.09 0.10 0.11 0.07 0.06 0.19 0.18 0.03 0.01 0.03 0.07 0.06 0.02 0.01 0.02 0.04 0.11 0.14 0.12 0.07 0.07 0.08 0.03 0.00 0.00 0.00 0.00 0.00 0.00 0.00 0.00 0.00 0.00 0.00 0.00 0.00 0.00 0.00 0.00 0.00 0.00 0.00 0.00
0.00 0.00 0.00 0.00 0.01 0.01 0.02 0.03 0.07 0.08 0.04 0.07 0.12 0.09 0.15 0.13 0.34 0.10 0.03 0.08 0.08 0.05 0.06 0.01 0.02 0.01 0.01 0.04 0.09 0.17 0.33 0.21 0.05 0.02 0.02 0.02 0.01 0.00 0.00 0.00 0.00 0.00 0.00 0.00 0.00 0.00 0.00 0.00 0.00 0.00 0.00 0.00 0.00 0.00
0.00 0.00 0.00 0.00 0.00 0.00 0.02 0.03 0.01 0.01 0.02 0.06 0.13 0.15 0.08 0.08 0.13 0.22 0.24 0.14 0.04 0.02 0.01 0.00 0.00 0.01 0.00 0.01 0.12 0.18 0.13 0.23 0.11 0.06 0.05 0.05 0.03 0.01 0.00 0.00 0.00 0.00 0.00 0.00 0.00 0.00 0.00 0.00 0.00 0.00 0.00 0.00 0.00 0.00
0.00 0.00 0.01 0.01 0.01 0.02 0.05 0.05 0.05 0.05 0.07 0.11 0.11 0.14 0.04 0.08 0.20 0.31 0.18 0.07 0.03 0.00 0.00 0.00 0.00 0.05 0.06 0.03 0.04 0.21 0.31 0.22 0.19 0.25 0.19 0.16 0.08 0.02 0.00 0.00 0.01 0.01 0.00 0.00 0.00 0.00 0.00 0.00 0.00 0.00 0.00 0.00 0.00 0.00
0.00 0.00 0.00 0.00 0.00 0.01 0.03 0.04 0.04 0.05 0.05 0.20 0.32 0.14 0.10 0.13 0.20 0.28 0.10 0.05 0.03 0.01 0.01 0.04 0.04 0.04 0.17 0.18 0.17 0.28 0.24 0.25 0.20 0.09 0.10 0.08 0.04 0.03 0.06 0.06 0.06 0.06 0.05 0.03 0.02 0.01 0.01 0.01 0.01 0.01 0.02 0.02 0.03 0.05
0.00 0.00 0.00 0.00 0.00 0.00 0.00 0.02 0.03 0.10 0.37 0.54 0.20 0.09 0.15 0.22 0.16 0.13 0.05 0.05 0.04 0.02 0.02 0.04 0.08 0.04 0.06 0.23 0.32 0.22 0.23 0.16 0.11 0.13 0.10 0.02 0.00 0.01 0.03 0.07 0.11 0.14 0.15 0.15 0.13 0.11 0.08 0.07 0.08 0.08 0.12 0.17 0.18 0.18
0.01 0.01 0.02 0.03 0.05 0.05 0.06 0.09 0.14 0.48 0.73 0.33 0.22 0.22 0.25 0.12 0.07 0.09 0.05 0.02 0.03 0.02 0.02 0.01 0.04 0.05 0.03 0.07 0.20 0.24 0.14 0.10 0.05 0.03 0.02 0.02 0.05 0.03 0.02 0.01 0.01 0.02 0.04 0.08 0.08 0.11 0.14 0.16 0.19 0.21 0.19 0.14 0.08 0.03
0.09 0.08 0.10 0.12 0.11 0.12 0.15 0.25 0.46 0.58 0.56 0.49 0.37 0.22 0.12 0.13 0.12 0.09 0.07 0.07 0.08 0.04 0.03 0.03 0.07 0.09 0.07 0.07 0.06 0.03 0.03 0.03 0.01 0.00 0.00 0.00 0.01 0.01 0.01 0.01 0.02 0.04 0.07 0.11 0.14 0.15 0.16 0.15 0.11 0.09 0.05 0.01 0.00 0.00
0.20 0.15 0.16 0.22 0.23 0.28 0.37 0.44 0.42 0.35 0.29 0.19 0.15 0.15 0.14 0.14 0.13 0.11 0.10 0.11 0.10 0.08 0.05 0.07 0.13 0.19 0.15 0.05 0.03 0.02 0.01 0.02 0.02 0.03 0.02 0.02 0.03 0.04 0.05 0.06 0.10 0.14 0.16 0.13 0.11 0.08 0.06 0.04 0.01 0.00 0.00 0.00 0.00 0.00
0.24 0.12 0.11 0.13 0.16 0.19 0.23 0.21 0.13 0.04 0.03 0.04 0.10 0.15 0.12 0.09 0.08 0.08 0.08 0.07 0.04 0.02 0.03 0.03 0.04 0.10 0.13 0.09 0.08 0.08 0.09 0.09 0.08 0.06 0.04 0.05 0.06 0.07 0.09 0.12 0.15 0.18 0.15 0.08 0.05 0.04 0.03 0.01 0.00 0.00 0.00 0.00 0.00 0.00
0.30 0.22 0.21 0.24 0.19 0.19 0.24 0.29 0.11 0.00 0.03 0.08 0.08 0.12 0.09 0.11 0.10 0.08 0.09 0.10 0.07 0.06 0.06 0.07 0.05 0.03 0.04 0.04 0.07 0.14 0.20 0.22 0.20 0.18 0.18 0.18 0.18 0.19 0.19 0.18 0.20 0.16 0.08 0.06 0.07 0.08 0.06 0.04 0.03 0.03 0.01 0.00 0.00 0.00
0.04 0.08 0.16 0.17 0.14 0.14 0.14 0.07 0.03 0.04 0.09 0.08 0.09 0.06 0.04 0.07 0.11 0.14 0.12 0.11 0.08 0.03 0.03 0.06 0.04 0.05 0.07 0.08 0.11 0.14 0.19 0.20 0.21 0.24 0.25 0.25 0.24 0.20 0.20 0.19 0.15 0.11 0.10 0.11 0.09 0.07 0.06 0.04 0.04 0.02 0.01 0.00 0.00 0.00
0.00 0.01 0.02 0.02 0.00 0.00 0.00 0.00 0.00 0.02 0.06 0.09 0.08 0.03 0.02 0.05 0.04 0.02 0.02 0.02 0.02 0.01 0.03 0.05 0.11 0.13 0.15 0.17 0.22 0.25 0.25 0.24 0.20 0.13 0.16 0.19 0.23 0.16 0.16 0.12 0.11 0.10 0.08 0.09 0.09 0.08 0.06 0.04 0.03 0.01 0.01 0.00 0.00 0.00
0.00 0.00 0.00 0.00 0.00 0.00 0.00 0.00 0.01 0.03 0.03 0.07 0.07 0.02 0.04 0.01 0.00 0.00 0.00 0.00 0.00 0.05 0.12 0.16 0.17 0.17 0.20 0.23 0.22 0.20 0.21 0.20 0.16 0.10 0.11 0.12 0.17 0.11 0.11 0.11 0.09 0.08 0.07 0.07 0.06 0.07 0.05 0.06 0.05 0.03 0.02 0.01 0.01 0.01
0.00 0.00 0.00 0.00 0.00 0.00 0.00 0.00 0.01 0.02 0.01 0.03 0.03 0.02 0.03 0.01 0.00 0.00 0.00 0.01 0.05 0.12 0.17 0.18 0.17 0.18 0.18 0.18 0.20 0.18 0.22 0.16 0.12 0.10 0.11 0.09 0.09 0.08 0.09 0.10 0.06 0.06 0.05 0.06 0.05 0.04 0.04 0.04 0.04 0.03 0.02 0.02 0.01 0.01
0.00 0.00 0.00 0.00 0.00 0.00 0.00 0.00 0.00 0.00 0.00 0.00 0.00 0.00 0.00 0.00 0.00 0.00 0.00 0.02 0.07 0.13 0.15 0.13 0.16 0.16 0.15 0.19 0.12 0.11 0.14 0.10 0.07 0.08 0.08 0.06 0.05 0.06 0.04 0.04 0.03 0.02 0.02 0.04 0.03 0.02 0.02 0.03 0.02 0.01 0.00 0.00 0.00 0.00
0.00 0.00 0.00 0.00 0.00 0.00 0.00 0.00 0.00 0.00 0.00 0.00 0.00 0.01 0.02 0.00 0.00 0.00 0.01 0.02 0.07 0.07 0.06 0.09 0.10 0.09 0.09 0.06 0.06 0.07 0.10 0.06 0.04 0.04 0.05 0.01 0.01 0.02 0.01 0.01 0.01 0.01 0.01 0.01 0.01 0.01 0.01 0.00 0.00 0.00 0.00 0.00 0.00 0.00
0.00 0.00 0.00 0.00 0.00 0.00 0.00 0.00 0.00 0.00 0.00 0.00 0.00 0.02 0.01 0.00 0.00 0.00 0.01 0.03 0.03 0.03 0.04 0.04 0.04 0.04 0.05 0.05 0.05 0.05 0.03 0.01 0.00 0.01 0.02 0.00 0.00 0.00 0.00 0.00 0.00 0.00 0.00 0.00 0.00 0.00 0.00 0.00 0.00 0.00 0.00 0.00 0.00 0.00
0.00 0.00 0.00 0.00 0.00 0.00 0.00 0.00 0.00 0.00 0.00 0.00 0.01 0.01 0.00 0.00 0.00 0.01 0.02 0.03 0.02 0.03 0.03 0.03 0.02 0.00 0.00 0.00 0.00 0.01 0.01 0.00 0.00 0.00 0.01 0.00 0.00 0.00 0.00 0.00 0.00 0.00 0.00 0.00 0.00 0.00 0.00 0.00 0.00 0.00 0.00 0.00 0.00 0.00
0.00 0.00 0.00 0.00 0.00 0.00 0.00 0.00 0.00 0.00 0.00 0.01 0.01 0.00 0.00 0.00 0.01 0.02 0.03 0.02 0.02 0.02 0.01 0.01 0.00 0.00 0.00 0.01 0.01 0.00 0.00 0.00 0.00 0.00 0.00 0.00 0.00 0.00 0.00 0.00 0.01 0.01 0.01 0.00 0.00 0.00 0.00 0.00 0.00 0.00 0.00 0.00 0.00 0.00
0.00 0.00 0.00 0.00 0.00 0.00 0.00 0.00 0.00 0.01 0.01 0.01 0.00 0.00 0.00 0.00 0.01 0.03 0.04 0.04 0.01 0.00 0.00 0.00 0.00 0.00 0.00 0.01 0.01 0.00 0.00 0.00 0.00 0.00 0.00 0.00 0.00 0.00 0.00 0.00 0.00 0.00 0.00 0.00 0.00 0.00 0.00 0.01 0.01 0.01 0.00 0.00 0.00 0.00
0.00 0.00 0.00 0.00 0.00 0.00 0.01 0.01 0.01 0.01 0.01 0.00 0.00 0.00 0.01 0.01 0.02 0.03 0.04 0.03 0.02 0.00 0.00 0.00 0.00 0.00 0.00 0.00 0.00 0.00 0.00 0.00 0.00 0.00 0.00 0.00 0.00 0.00 0.00 0.00 0.00 0.00 0.00 0.00 0.00 0.00 0.00 0.01 0.01 0.00 0.00 0.00 0.00 0.00
0.00 0.00 0.00 0.00 0.00 0.00 0.01 0.01 0.00 0.00 0.00 0.00 0.00 0.00 0.00 0.02 0.04 0.03 0.01 0.01 0.00 0.00 0.00 0.00 0.00 0.00 0.00 0.00 0.00 0.00 0.00 0.00 0.00 0.00 0.00 0.00 0.00 0.00 0.00 0.00 0.00 0.00 0.00 0.00 0.00 0.00 0.00 0.00 0.00 0.00 0.00 0.00 0.00 0.00
0.00 0.00 0.00 0.00 0.01 0.01 0.00 0.00 0.00 0.00 0.00 0.00 0.00 0.00 0.00 0.01 0.02 0.01 0.00 0.00 0.00 0.00 0.00 0.00 0.00 0.00 0.00 0.00 0.00 0.00 0.00 0.00 0.00 0.00 0.00 0.00 0.00 0.00 0.00 0.00 0.00 0.00 0.00 0.00 0.00 0.00 0.00 0.00 0.00 0.00 0.00 0.00 0.00 0.00
0.00 0.00 0.00 0.00 0.01 0.01 0.01 0.01 0.00 0.00 0.00 0.00 0.00 0.00 0.00 0.00 0.00 0.00 0.01 0.00 0.00 0.00 0.00 0.00 0.00 0.00 0.00 0.00 0.00 0.00 0.00 0.00 0.00 0.00 0.00 0.00 0.00 0.00 0.00 0.00 0.00 0.00 0.00 0.00 0.00 0.00 0.00 0.00 0.00 0.00 0.00 0.00 0.00 0.00
0.00 0.00 0.00 0.00 0.01 0.01 0.02 0.03 0.01 0.01 0.00 0.00 0.00 0.00 0.00 0.00 0.00 0.00 0.01 0.00 0.00 0.00 0.00 0.00 0.00 0.00 0.00 0.00 0.00 0.00 0.00 0.00 0.00 0.00 0.00 0.00 0.00 0.00 0.00 0.00 0.00 0.00 0.00 0.00 0.00 0.00 0.00 0.00 0.00 0.00 0.00 0.00 0.00 0.00